Regional Weather Roundup
Issued by NWS Kansas City/Pleasant Hill, MO

Home | Current Version | Previous Version | Text Only | Print | Product List | Glossary On
Versions: 1 2 3 4 5 6 7 8 9 10 11 12 13 14 15 16 17 18 19 20 21 22 23 24 25 26 27
000
ASUS43 KEAX 181710
RWREAX

WEATHER ROUNDUP FOR EASTERN KANSAS AND NORTHWEST MISSOURI
NATIONAL WEATHER SERVICE KANSAS CITY/PLEASANT HILL MO
1100 AM CST SAT FEB 18 2017

KSZ040-057-103>105-MOZ028-029-037-043-181800-
...KANSAS CITY METROPOLITAN AREA...

CITY           SKY/WX    TMP DP  RH WIND       PRES   REMARKS
K.C. INTL      SUNNY     59  41  51 VRB5      29.82S
K.C. DOWNTOWN  SUNNY     61  44  53 W6        29.82S
LEES SUMMIT    SUNNY     60  46  59 W10       29.83S
OLATHE - IXD   SUNNY     60  47  61 W8        29.84S
OLATHE - OJC   SUNNY     58  47  66 W7        29.83S
LAWRENCE       SUNNY     61  45  55 W7        29.83S

$$

MOZ001>008-011>017-020>025-030>033-038>040-044>046-053-054-181800-
...NORTHERN AND CENTRAL MISSOURI...

CITY           SKY/WX    TMP DP  RH WIND       PRES   REMARKS
ST. JOSEPH     SUNNY     58  40  51 VRB5      29.83S
WARRENSBURG    SUNNY     59  45  58 W8        29.83S
WHITEMAN AFB   SUNNY     62  47  59 W10       29.82S
CLINTON        SUNNY     63  46  55 SW12      29.85S
SEDALIA        SUNNY     62  46  55 W7        29.84S
WARSAW         NOT AVBL
CHILLICOTHE      N/A     60  40  47 CALM      29.82R
KIRKSVILLE     SUNNY     60  39  45 VRB3      29.81R

$$

MOZ041-047>049-056>058-063>065-088>090-097-181800-
...EASTERN AND SOUTHERN MISSOURI...

CITY           SKY/WX    TMP DP  RH WIND       PRES   REMARKS
ST. LOUIS INTL CLOUDY    62  43  49 SW12      29.83F
SPIRIT OF STL  CLOUDY    60  46  59 SW10      29.82F
COLUMBIA       MOSUNNY   59  44  57 W13       29.83S
JEFFERSON CITY CLOUDY    62  44  51 W13G18    29.83S
ROLLA          CLOUDY    57  46  66 S14       29.83F
OSAGE BEACH    CLOUDY    61  46  57 W9        29.85S
SPRINGFIELD    MOSUNNY   63  47  55 W8        29.86R
BRANSON        MOSUNNY   63  46  55 CALM      29.88R
JOPLIN         CLOUDY    58  50  75 SW14      29.88R
WEST PLAINS    PTSUNNY   53  49  86 S6        29.89S

$$

IAZ060-094-KSZ022-034>040-054-083-096-NEZ052-066-093-181800-
...KANSAS...SOUTHEAST NEBRASKA AND IOWA...

CITY           SKY/WX    TMP DP  RH WIND       PRES   REMARKS
TOPEKA         SUNNY     58  42  55 CALM      29.83S
MANHATTAN      SUNNY     57  42  57 CALM      29.81F
EMPORIA        SUNNY     63  47  55 VRB5      29.82F
CHANUTE        SUNNY     62  49  62 SW8       29.86R
WICHITA        MOSUNNY   60  48  64 SE6       29.82S
OMAHA          MOSUNNY   54  37  52 N6        29.84S
LINCOLN        SUNNY     56  35  45 E8        29.86F
FALLS CITY     SUNNY     57  38  48 E6        29.82F
LAMONI         SUNNY     59  38  45 N8        29.81S
DES MOINES     MOSUNNY   54  36  50 W3        29.83S

$$





USA.gov is the U.S. government's official web portal to all federal, state and local government web resources and services.